| Date | Time | Temp. (oF) | Dew Point (oF) | Rel. Hum. (%) | Press. (in.) | Wind Dir. | Wind Speed (mph) | Hourly Rainfall (in.) |
|
|---|---|---|---|---|---|---|---|---|---|
| 1 | miss | miss | miss | miss | miss | miss | miss | miss | |
| 2 | 03/20 | 21:53 | 43 | 42 | 100 | 29.99 | NNW | 3 | 0.00 |
| 3 | miss | miss | miss | miss | miss | miss | miss | miss | |
| 4 | 03/20 | 21:00 | 43 | 42 | 100 | 29.97 | WNW | 4 | 0.00 |
| 5 | 03/20 | 20:00 | 44 | 44 | 100 | 29.95 | W | 8 | 0.00 |
| 6 | 03/20 | 19:00 | 44 | 44 | 100 | 29.91 | W | 5 | 0.00 |
| 7 | 03/20 | 18:00 | 45 | 45 | 100 | 29.88 | W | 7 | 0.00 |
| 8 | 03/20 | 17:00 | 45 | 45 | 100 | 29.86 | WNW | 5 | 0.00 |
| 9 | 03/20 | 16:00 | 45 | 45 | 100 | 29.84 | NNW | 2 | 0.00 |
| 10 | 03/20 | 15:00 | 45 | 45 | 100 | 29.86 | NNE | 1 | 0.01 |
| 11 | 03/20 | 14:00 | 44 | 44 | 100 | 29.88 | ENE | 2 | 0.00 |
| 12 | 03/20 | 13:00 | 43 | 42 | 100 | 29.92 | E | 7 | 0.09 |
| 13 | 03/20 | 12:00 | 43 | 42 | 100 | 29.99 | SE | 5 | 0.12 |
| 14 | 03/20 | 11:00 | 42 | 41 | 100 | 30.03 | SSE | 2 | 0.16 |
| 15 | 03/20 | 10:00 | 41 | 41 | 100 | 30.10 | E | 5 | 0.09 |
| 16 | 03/20 | 09:00 | 40 | 40 | 100 | 30.14 | ESE | 5 | 0.14 |
| 17 | 03/20 | 08:00 | 39 | 39 | 100 | 30.15 | E | 7 | 0.16 |
| 18 | 03/20 | 07:00 | 38 | 37 | 100 | 30.17 | E | 7 | 0.06 |
| 19 | 03/20 | 06:00 | 36 | 36 | 100 | 30.20 | S | 2 | 0.03 |
| 20 | 03/20 | 05:00 | 35 | 35 | 100 | 30.25 | ESE | 4 | 0.02 |
| 21 | 03/20 | 04:00 | 35 | 35 | 100 | 30.27 | SE | 2 | 0.01 |
| 22 | 03/20 | 03:00 | 36 | 36 | 100 | 30.30 | SE | 5 | 0.03 |
| 23 | 03/20 | 02:00 | 38 | 37 | 97 | 30.34 | SSE | 4 | 0.02 |
| 24 | 03/20 | 01:00 | 39 | 37 | 95 | 30.34 | SE | 12 | 0.01 |